Location: Shepherdstown, WV
(39.4326°N, 77.8042°W)
Time: 18:16:26
(UTC-04:00)

Vanguard 3 - Pass Details

Date: 28 July 2021
Orbit: 510 x 3260 km, 33.3° (Epoch: 18 September)

Event Time Altitude Azimuth Distance (km) Brightness Sun altitude
Rises 20:48:36 0° 250° (WSW) 6,197 12.3 -4.5°
Reaches altitude 10° 20:52:15 10° 248° (WSW) 5,458 12.0 -5.1°
Maximum altitude 21:10:05 70° 170° (S) 3,386 10.1 -8.1°
Drops below altitude 10° 21:29:06 10° 92° (E) 5,775 11.0 -11.1°
Sets 21:33:06 0° 90° (E) 6,556 11.3 -11.7°
